| time (UTC) | temp F | wind direction | speed MPH | gust MPH | rain 1hr in | rain 24hr in | rain mn in | humidity % | barometer mb |
| 20260905021017 | 55 | 200 | 3.0 | 6.0 | 0.00 | 0.06 | 0.00 | 90 | 1021.1 |
| 20260905015018 | 55 | 214 | 2.0 | 6.0 | 0.00 | 0.06 | 0.00 | 89 | 1021.2 |
| 20260905014517 | 55 | 201 | 3.0 | 6.0 | 0.00 | 0.06 | 0.00 | 89 | 1021.1 |
| 20260905014018 | 55 | 214 | 1.0 | 6.0 | 0.00 | 0.06 | 0.00 | 89 | 1021.1 |
| 20260905013517 | 55 | 215 | 2.0 | 6.0 | 0.00 | 0.06 | 0.00 | 89 | 1021.1 |
| 20260905013017 | 55 | 199 | 1.0 | 5.0 | 0.00 | 0.06 | 0.00 | 89 | 1021.1 |
| 20260905012518 | 55 | 216 | 2.0 | 6.0 | 0.00 | 0.06 | 0.00 | 89 | 1021.0 |
| 20260905011518 | 55 | 213 | 2.0 | 6.0 | 0.00 | 0.06 | 0.00 | 88 | 1021.0 |
| 20260905011017 | 55 | 217 | 3.0 | 6.0 | 0.00 | 0.06 | 0.00 | 88 | 1021.0 |
| 20260905010017 | 55 | 213 | 2.0 | 5.0 | 0.00 | 0.06 | 0.00 | 88 | 1021.0 |
| 20260905005517 | 56 | 225 | 2.0 | 5.0 | 0.00 | 0.06 | 0.00 | 88 | 1021.0 |
| 20260905005018 | 56 | 209 | 2.0 | 5.0 | 0.00 | 0.06 | 0.00 | 88 | 1021.1 |
| 20260905004517 | 56 | 230 | 2.0 | 5.0 | 0.00 | 0.06 | 0.00 | 88 | 1021.0 |
| 20260905004018 | 56 | 209 | 2.0 | 5.0 | 0.00 | 0.06 | 0.00 | 88 | 1021.0 |
| 20260905003017 | 56 | 227 | 2.0 | 5.0 | 0.00 | 0.06 | 0.00 | 88 | 1021.0 |
| 20260905002517 | 56 | 214 | 1.0 | 5.0 | 0.00 | 0.06 | 0.00 | 88 | 1021.1 |
| 20260905002018 | 56 | 220 | 2.0 | 6.0 | 0.00 | 0.06 | 0.00 | 88 | 1021.1 |
| 20260904235518 | 55 | 222 | 2.0 | 6.0 | 0.00 | 0.06 | 0.00 | 89 | 1020.9 |
| 20260904234517 | 55 | 215 | 2.0 | 3.0 | 0.00 | 0.06 | 0.00 | 88 | 1020.8 |
| 20260904233517 | 56 | 195 | 1.0 | 3.0 | 0.00 | 0.06 | 0.00 | 88 | 1020.8 |
| 20260904233018 | 56 | 190 | 1.0 | 3.0 | 0.00 | 0.06 | 0.00 | 88 | 1020.7 |
| 20260904232017 | 56 | 223 | 1.0 | 3.0 | 0.00 | 0.06 | 0.00 | 88 | 1020.7 |
| 20260904231018 | 56 | 216 | 1.0 | 3.0 | 0.00 | 0.06 | 0.00 | 87 | 1020.7 |
| 20260904225517 | 56 | 222 | 2.0 | 5.0 | 0.00 | 0.06 | 0.06 | 88 | 1020.6 |
| 20260904224517 | 56 | 220 | 2.0 | 5.0 | 0.00 | 0.06 | 0.06 | 88 | 1020.6 |
| 20260904224017 | 56 | 211 | 2.0 | 5.0 | 0.00 | 0.06 | 0.06 | 88 | 1020.6 |
| 20260904221018 | 56 | 210 | 1.0 | 3.0 | 0.00 | 0.06 | 0.06 | 87 | 1020.4 |
| 20260904220518 | 57 | 216 | 1.0 | 3.0 | 0.00 | 0.06 | 0.06 | 86 | 1020.3 |
| 20260904220017 | 57 | 214 | 1.0 | 3.0 | 0.00 | 0.06 | 0.06 | 85 | 1020.3 |
| 20260904214017 | 58 | 197 | 1.0 | 3.0 | 0.00 | 0.06 | 0.06 | 84 | 1020.3 |
| 20260904213517 | 58 | 204 | 1.0 | 3.0 | 0.00 | 0.06 | 0.06 | 84 | 1020.3 |
| 20260904211517 | 58 | 205 | 1.0 | 3.0 | 0.00 | 0.06 | 0.06 | 83 | 1020.1 |
| 20260904211017 | 59 | 205 | 2.0 | 5.0 | 0.00 | 0.06 | 0.06 | 83 | 1020.0 |
| 20260904210517 | 59 | 232 | 2.0 | 6.0 | 0.00 | 0.06 | 0.06 | 83 | 1020.0 |
| 20260904205517 | 59 | 205 | 1.0 | 5.0 | 0.00 | 0.06 | 0.06 | 82 | 1019.9 |
| 20260904204017 | 59 | 214 | 2.0 | 5.0 | 0.00 | 0.06 | 0.06 | 81 | 1019.7 |
| 20260904203517 | 60 | 207 | 2.0 | 5.0 | 0.00 | 0.06 | 0.06 | 80 | 1019.7 |
| 20260904203017 | 60 | 228 | 1.0 | 5.0 | 0.00 | 0.06 | 0.06 | 80 | 1019.7 |
| 20260904201017 | 60 | 246 | 1.0 | 5.0 | 0.00 | 0.06 | 0.06 | 79 | 1019.5 |
| 20260904200517 | 61 | 196 | 2.0 | 6.0 | 0.00 | 0.06 | 0.06 | 78 | 1019.5 |
| 20260904194517 | 61 | 230 | 2.0 | 6.0 | 0.00 | 0.06 | 0.06 | 79 | 1019.4 |
| 20260904194018 | 61 | 239 | 2.0 | 5.0 | 0.00 | 0.06 | 0.06 | 79 | 1019.4 |
| 20260904193517 | 61 | 236 | 3.0 | 6.0 | 0.00 | 0.06 | 0.06 | 78 | 1019.3 |
| 20260904192018 | 62 | 222 | 2.0 | 6.0 | 0.00 | 0.06 | 0.06 | 77 | 1019.2 |
| 20260904190517 | 62 | 217 | 3.0 | 6.0 | 0.00 | 0.06 | 0.06 | 76 | 1019.0 |
| 20260904185017 | 63 | 272 | 1.0 | 9.0 | 0.00 | 0.06 | 0.06 | 75 | 1018.9 |
| 20260904184017 | 63 | 253 | 1.0 | 12.0 | 0.00 | 0.06 | 0.06 | 74 | 1018.8 |
| 20260904183517 | 63 | 230 | 3.0 | 12.0 | 0.00 | 0.06 | 0.06 | 73 | 1018.8 |
| 20260904183017 | 64 | 238 | 5.0 | 12.0 | 0.00 | 0.06 | 0.06 | 73 | 1018.7 |
| 20260904182517 | 64 | 215 | 3.0 | 9.0 | 0.00 | 0.06 | 0.06 | 72 | 1018.6 |
| 20260904182017 | 64 | 282 | 3.0 | 10.0 | 0.00 | 0.06 | 0.06 | 72 | 1018.6 |
| 20260904181517 | 64 | 206 | 3.0 | 12.0 | 0.00 | 0.06 | 0.06 | 72 | 1018.6 |
| 20260904180018 | 64 | 237 | 6.0 | 10.0 | 0.00 | 0.06 | 0.06 | 70 | 1018.4 |
| 20260904175518 | 64 | 231 | 5.0 | 10.0 | 0.00 | 0.06 | 0.06 | 70 | 1018.4 |
| 20260904174517 | 64 | 226 | 6.0 | 12.0 | 0.00 | 0.06 | 0.06 | 69 | 1018.3 |
| 20260904174018 | 64 | 217 | 5.0 | 12.0 | 0.00 | 0.06 | 0.06 | 70 | 1018.1 |
| 20260904173517 | 64 | 196 | 4.0 | 8.0 | 0.00 | 0.06 | 0.06 | 69 | 1018.0 |
| 20260904173017 | 64 | 221 | 5.0 | 10.0 | 0.00 | 0.06 | 0.06 | 69 | 1018.3 |
| 20260904172017 | 65 | 227 | 5.0 | 10.0 | 0.00 | 0.06 | 0.06 | 67 | 1018.3 |
| 20260904171517 | 65 | 234 | 4.0 | 10.0 | 0.00 | 0.06 | 0.06 | 67 | 1018.3 |
| 20260904170018 | 65 | 258 | 5.0 | 10.0 | 0.00 | 0.06 | 0.06 | 64 | 1018.0 |
| 20260904165517 | 65 | 240 | 5.0 | 15.0 | 0.00 | 0.06 | 0.06 | 65 | 1017.9 |
| 20260904165017 | 65 | 239 | 6.0 | 15.0 | 0.00 | 0.06 | 0.06 | 65 | 1017.9 |
| 20260904164017 | 66 | 236 | 4.0 | 12.0 | 0.00 | 0.06 | 0.06 | 65 | 1017.9 |
| 20260904163018 | 66 | 233 | 5.0 | 12.0 | 0.00 | 0.06 | 0.06 | 66 | 1017.7 |
| 20260904162517 | 66 | 232 | 3.0 | 9.0 | 0.00 | 0.06 | 0.06 | 66 | 1017.8 |
| 20260904162017 | 66 | 239 | 2.0 | 8.0 | 0.00 | 0.06 | 0.06 | 66 | 1017.9 |
| 20260904160517 | 66 | 245 | 5.0 | 14.0 | 0.00 | 0.06 | 0.06 | 65 | 1017.8 |
| 20260904160018 | 66 | 233 | 5.0 | 12.0 | 0.00 | 0.06 | 0.06 | 65 | 1017.9 |
| 20260904155017 | 66 | 248 | 3.0 | 12.0 | 0.00 | 0.06 | 0.06 | 64 | 1017.7 |
| 20260904154018 | 66 | 231 | 5.0 | 12.0 | 0.00 | 0.06 | 0.06 | 63 | 1017.7 |
| 20260904152517 | 67 | 253 | 5.0 | 14.0 | 0.00 | 0.06 | 0.06 | 62 | 1017.6 |
| 20260904152018 | 67 | 238 | 3.0 | 12.0 | 0.00 | 0.06 | 0.06 | 62 | 1017.6 |
| 20260904151017 | 67 | 217 | 5.0 | 9.0 | 0.00 | 0.06 | 0.06 | 62 | 1017.5 |
| 20260904145517 | 68 | 244 | 3.0 | 12.0 | 0.00 | 0.06 | 0.06 | 62 | 1017.5 |
| 20260904144017 | 68 | 296 | 5.0 | 12.0 | 0.00 | 0.06 | 0.06 | 60 | 1017.3 |
| 20260904143018 | 67 | 289 | 5.0 | 10.0 | 0.00 | 0.06 | 0.06 | 64 | 1017.2 |
| 20260904141517 | 67 | 313 | 1.0 | 9.0 | 0.00 | 0.06 | 0.06 | 66 | 1017.1 |
| 20260904140017 | 67 | 254 | 4.0 | 8.0 | 0.00 | 0.06 | 0.06 | 66 | 1016.9 |
| 20260904135518 | 67 | 268 | 1.0 | 6.0 | 0.00 | 0.06 | 0.06 | 67 | 1016.7 |
| 20260904134018 | 66 | 294 | 4.0 | 12.0 | 0.00 | 0.06 | 0.06 | 69 | 1016.7 |
| 20260904132018 | 67 | 309 | 3.0 | 10.0 | 0.00 | 0.06 | 0.06 | 71 | 1016.6 |
| 20260904131517 | 67 | 299 | 4.0 | 10.0 | 0.00 | 0.06 | 0.06 | 71 | 1016.8 |
| 20260904125018 | 67 | 325 | 3.0 | 10.0 | 0.00 | 0.06 | 0.06 | 73 | 1016.2 |
| 20260904124017 | 67 | 318 | 5.0 | 12.0 | 0.00 | 0.06 | 0.06 | 73 | 1016.2 |
| 20260904123517 | 67 | 292 | 3.0 | 8.0 | 0.00 | 0.06 | 0.06 | 74 | 1016.3 |
| 20260904121518 | 68 | 291 | 7.0 | 12.0 | 0.00 | 0.06 | 0.06 | 74 | 1016.0 |
| 20260904114518 | 69 | 284 | 6.0 | 12.0 | 0.00 | 0.06 | 0.06 | 73 | 1015.9 |
| 20260904114017 | 69 | 306 | 5.0 | 15.0 | 0.00 | 0.06 | 0.06 | 73 | 1015.8 |
| 20260904113518 | 69 | 237 | 7.0 | 17.0 | 0.00 | 0.06 | 0.06 | 72 | 1015.6 |
| 20260904113017 | 69 | 242 | 6.0 | 17.0 | 0.00 | 0.06 | 0.06 | 72 | 1015.5 |
| 20260904112017 | 69 | 213 | 6.0 | 13.0 | 0.00 | 0.06 | 0.06 | 71 | 1015.4 |
| 20260904111017 | 69 | 235 | 5.0 | 14.0 | 0.00 | 0.06 | 0.06 | 73 | 1015.1 |
| 20260904110518 | 69 | 222 | 7.0 | 12.0 | 0.00 | 0.06 | 0.06 | 73 | 1015.1 |
| 20260904104018 | 68 | 252 | 5.0 | 13.0 | 0.00 | 0.06 | 0.06 | 77 | 1014.8 |
| 20260904103517 | 68 | 236 | 6.0 | 13.0 | 0.00 | 0.06 | 0.06 | 77 | 1014.9 |
| 20260904103018 | 68 | 229 | 6.0 | 13.0 | 0.00 | 0.06 | 0.06 | 77 | 1014.9 |
| 20260904102518 | 68 | 233 | 6.0 | 13.0 | 0.00 | 0.06 | 0.06 | 77 | 1014.9 |
| 20260904101518 | 68 | 256 | 5.0 | 12.0 | 0.00 | 0.06 | 0.06 | 76 | 1014.9 |
| 20260904101017 | 68 | 255 | 5.0 | 12.0 | 0.00 | 0.06 | 0.06 | 76 | 1014.9 |
| 20260904100517 | 68 | 230 | 4.0 | 12.0 | 0.00 | 0.06 | 0.06 | 78 | 1014.8 |
| 20260904095017 | 67 | 228 | 7.0 | 14.0 | 0.00 | 0.06 | 0.06 | 82 | 1014.8 |
| 20260904094017 | 67 | 243 | 3.0 | 10.0 | 0.00 | 0.06 | 0.06 | 86 | 1014.7 |
| 20260904093517 | 67 | 238 | 2.0 | 15.0 | 0.00 | 0.06 | 0.06 | 88 | 1014.6 |
| 20260904090518 | 66 | 203 | 3.0 | 10.0 | 0.00 | 0.06 | 0.06 | 89 | 1014.2 |
| 20260904090018 | 66 | 247 | 5.0 | 12.0 | 0.00 | 0.06 | 0.06 | 88 | 1014.1 |
| 20260904085017 | 66 | 236 | 3.0 | 12.0 | 0.00 | 0.06 | 0.06 | 89 | 1013.9 |
| 20260904084018 | 66 | 224 | 3.0 | 9.0 | 0.00 | 0.06 | 0.06 | 90 | 1013.7 |
| 20260904083518 | 65 | 242 | 3.0 | 12.0 | 0.00 | 0.06 | 0.06 | 90 | 1013.7 |
| 20260904083018 | 65 | 240 | 6.0 | 12.0 | 0.00 | 0.06 | 0.06 | 90 | 1013.7 |
| 20260904082518 | 65 | 220 | 3.0 | 12.0 | 0.00 | 0.06 | 0.06 | 90 | 1013.7 |
| 20260904081018 | 65 | 251 | 2.0 | 8.0 | 0.00 | 0.06 | 0.06 | 91 | 1013.5 |
| 20260904080517 | 65 | 205 | 4.0 | 8.0 | 0.00 | 0.06 | 0.06 | 91 | 1013.5 |
| 20260904075517 | 65 | 228 | 5.0 | 10.0 | 0.00 | 0.06 | 0.06 | 91 | 1013.5 |
| 20260904074018 | 65 | 219 | 5.0 | 12.0 | 0.01 | 0.06 | 0.06 | 92 | 1013.5 |
| 20260904073517 | 65 | 212 | 3.0 | 12.0 | 0.01 | 0.06 | 0.06 | 92 | 1013.4 |
| 20260904073018 | 65 | 231 | 4.0 | 9.0 | 0.02 | 0.06 | 0.06 | 92 | 1013.4 |
| 20260904070517 | 65 | 233 | 3.0 | 9.0 | 0.06 | 0.06 | 0.06 | 92 | 1013.1 |
| 20260904070018 | 65 | 306 | 3.0 | 13.0 | 0.06 | 0.06 | 0.06 | 91 | 1013.0 |
| 20260904065017 | 66 | 317 | 1.0 | 8.0 | 0.06 | 0.06 | 0.06 | 92 | 1013.0 |
| 20260904063518 | 66 | 234 | 6.0 | 13.0 | 0.06 | 0.06 | 0.06 | 90 | 1012.8 |
| 20260904063018 | 67 | 277 | 4.0 | 12.0 | 0.05 | 0.05 | 0.05 | 89 | 1012.7 |
| 20260904062017 | 68 | 230 | 5.0 | 14.0 | 0.00 | 0.00 | 0.00 | 91 | 1012.1 |
| 20260904061517 | 68 | 204 | 6.0 | 14.0 | 0.00 | 0.00 | 0.00 | 91 | 1011.9 |
| 20260904061017 | 68 | 203 | 7.0 | 12.0 | 0.00 | 0.00 | 0.00 | 91 | 1011.9 |
| 20260904060517 | 68 | 199 | 7.0 | 12.0 | 0.00 | 0.00 | 0.00 | 91 | 1011.9 |
| 20260904055018 | 68 | 212 | 7.0 | 15.0 | 0.00 | 0.00 | 0.00 | 91 | 1011.8 |
| 20260904054518 | 68 | 202 | 6.0 | 15.0 | 0.00 | 0.00 | 0.00 | 90 | 1011.7 |
| 20260904054017 | 68 | 218 | 5.0 | 14.0 | 0.00 | 0.00 | 0.00 | 90 | 1011.6 |
| 20260904051517 | 69 | 198 | 7.0 | 21.0 | 0.00 | 0.00 | 0.00 | 89 | 1011.6 |
| 20260904050517 | 69 | 201 | 8.0 | 16.0 | 0.00 | 0.00 | 0.00 | 89 | 1011.7 |
| 20260904050018 | 69 | 208 | 8.0 | 16.0 | 0.00 | 0.00 | 0.00 | 89 | 1011.8 |
| 20260904045517 | 69 | 201 | 8.0 | 20.0 | 0.00 | 0.00 | 0.00 | 89 | 1011.7 |
| 20260904043517 | 68 | 195 | 10.0 | 20.0 | 0.00 | 0.00 | 0.00 | 90 | 1011.5 |
| 20260904042517 | 68 | 200 | 10.0 | 18.0 | 0.00 | 0.00 | 0.00 | 90 | 1011.7 |
| 20260904035517 | 68 | 196 | 7.0 | 14.0 | 0.00 | 0.00 | 0.00 | 90 | 1011.6 |
| 20260904035018 | 68 | 200 | 8.0 | 17.0 | 0.00 | 0.00 | 0.00 | 90 | 1011.7 |
| 20260904034517 | 68 | 199 | 10.0 | 18.0 | 0.00 | 0.00 | 0.00 | 90 | 1011.8 |
| 20260904034017 | 68 | 199 | 9.0 | 18.0 | 0.00 | 0.00 | 0.00 | 90 | 1011.8 |
| 20260904032017 | 68 | 204 | 9.0 | 18.0 | 0.00 | 0.00 | 0.00 | 90 | 1012.1 |
| 20260904031517 | 68 | 207 | 9.0 | 16.0 | 0.00 | 0.00 | 0.00 | 91 | 1012.2 |
| 20260904030517 | 69 | 193 | 9.0 | 16.0 | 0.00 | 0.00 | 0.00 | 91 | 1012.5 |
| 20260904030018 | 68 | 190 | 9.0 | 15.0 | 0.00 | 0.00 | 0.00 | 91 | 1012.7 |
| 20260904024017 | 68 | 192 | 8.0 | 20.0 | 0.00 | 0.00 | 0.00 | 91 | 1012.7 |
| 20260904023517 | 68 | 192 | 7.0 | 18.0 | 0.00 | 0.00 | 0.00 | 91 | 1012.8 |